FW2156 Weather Reports


Display with metric or nautical units.
time (UTC)temp
F
wind
direction
speed
MPH
gust
MPH
rain 1hr
in
rain 24hr
in
rain mn
in
humidity
%
barometer
mb
20260510081635 49 205 0.0 0.0 0.00 0.00 0.00 70 1012.2
20260510081135 50 158 0.0 0.0 0.00 0.00 0.00 69 1012.2
20260510080634 50 142 0.0 0.0 0.00 0.00 0.00 69 1012.2
20260510080136 50 155 0.0 0.0 0.00 0.00 0.00 68 1012.2
20260510075634 50 159 0.0 0.0 0.00 0.00 0.00 67 1012.2
20260510075133 50 139 0.0 1.0 0.00 0.00 0.00 67 1012.2
20260510074634 50 140 0.0 1.0 0.00 0.00 0.00 67 1012.5
20260510074135 51 141 0.0 0.0 0.00 0.00 0.00 66 1012.5
20260510073634 51 145 0.0 1.0 0.00 0.00 0.00 66 1012.5
20260510073133 51 157 0.0 0.0 0.00 0.00 0.00 66 1012.5
20260510072632 51 157 0.0 0.0 0.00 0.00 0.00 65 1012.5
20260510072133 51 163 0.0 0.0 0.00 0.00 0.00 65 1012.9
20260510071634 52 159 0.0 0.0 0.00 0.00 0.00 65 1012.9
20260510071135 52 158 0.0 0.0 0.00 0.00 0.00 65 1012.9
20260510070633 52 160 0.0 0.0 0.00 0.00 0.00 65 1012.5
20260510070131 52 163 0.0 0.0 0.00 0.00 0.00 64 1012.5
20260510065631 52 222 0.0 0.0 0.00 0.00 0.00 64 1012.9
20260510065131 53 149 0.0 0.0 0.00 0.00 0.00 63 1012.9
20260510064633 53 152 0.0 0.0 0.00 0.00 0.00 63 1012.9
20260510064132 53 151 0.0 0.0 0.00 0.00 0.00 63 1012.9
20260510063631 53 143 0.0 0.0 0.00 0.00 0.00 62 1012.9
20260510063130 54 173 0.0 0.0 0.00 0.00 0.00 62 1012.9
20260510062633 54 133 0.0 1.0 0.00 0.00 0.00 61 1012.9
20260510062132 54 130 0.0 1.0 0.00 0.00 0.00 61 1012.9
20260510061635 55 152 0.0 0.0 0.00 0.00 0.00 60 1012.9
20260510061131 55 114 1.0 2.0 0.00 0.00 0.00 60 1013.2
20260510060631 55 135 0.0 1.0 0.00 0.00 0.00 59 1013.2
20260510060132 56 146 0.0 0.0 0.00 0.00 0.00 60 1012.9
20260510055632 56 154 0.0 0.0 0.00 0.00 0.00 59 1012.9
20260510055130 56 166 0.0 0.0 0.00 0.00 0.00 59 1013.2
20260510054631 57 222 0.0 0.0 0.00 0.00 0.00 57 1013.2
20260510054036 57 244 0.0 1.0 0.00 0.00 0.00 57 1013.2
20260510053534 57 217 0.0 0.0 0.00 0.00 0.00 56 1013.5
20260510053030 57 138 0.0 0.0 0.00 0.00 0.00 56 1013.5
20260510052532 57 110 0.0 0.0 0.00 0.00 0.00 56 1013.5
20260510052031 57 105 1.0 2.0 0.00 0.00 0.00 55 1013.2
20260510051530 57 105 0.0 1.0 0.00 0.00 0.00 55 1013.5
20260510051031 57 101 0.0 1.0 0.00 0.00 0.00 55 1013.5
20260510050529 57 111 0.0 1.0 0.00 0.00 0.00 56 1013.5
20260510050031 57 161 0.0 0.0 0.00 0.00 0.00 56 1013.5
20260510045529 57 154 0.0 0.0 0.00 0.00 0.00 57 1013.5
20260510045029 57 198 0.0 1.0 0.00 0.00 0.00 56 1013.5
20260510044529 58 121 0.0 1.0 0.00 0.00 0.00 56 1013.5
20260510044029 58 163 0.0 0.0 0.00 0.00 0.00 57 1013.5
20260510043530 58 179 0.0 0.0 0.00 0.00 0.00 56 1013.5
20260510043029 59 146 0.0 0.0 0.00 0.00 0.00 56 1013.5
20260510042530 59 146 0.0 0.0 0.00 0.00 0.00 55 1013.5
20260510042029 59 155 0.0 0.0 0.00 0.00 0.00 55 1013.5
20260510041529 59 152 0.0 0.0 0.00 0.00 0.00 55 1013.2
20260510041027 59 144 0.0 0.0 0.00 0.00 0.00 55 1013.5
20260510040528 60 123 0.0 1.0 0.00 0.00 0.00 55 1013.2
20260510040030 60 142 0.0 0.0 0.00 0.00 0.00 54 1013.5
20260510035527 60 155 0.0 0.0 0.00 0.00 0.00 54 1013.5
20260510035027 60 113 3.0 3.0 0.00 0.00 0.00 54 1013.2
20260510034530 61 135 0.0 0.0 0.00 0.00 0.00 54 1013.2
20260510034027 61 133 0.0 0.0 0.00 0.00 0.00 53 1013.2
20260510033526 61 129 0.0 1.0 0.00 0.00 0.00 53 1013.5
20260510033027 61 124 0.0 0.0 0.00 0.00 0.00 52 1013.2
20260510032526 62 148 0.0 0.0 0.00 0.00 0.00 53 1013.2
20260510032029 62 134 0.0 1.0 0.00 0.00 0.00 52 1013.2
20260510031529 62 140 0.0 0.0 0.00 0.00 0.00 51 1013.2
20260510031026 62 139 0.0 0.0 0.00 0.00 0.00 51 1013.2
20260510030528 63 124 0.0 1.0 0.00 0.00 0.00 50 1012.9
20260510030026 63 90 0.0 1.0 0.00 0.00 0.00 50 1012.9
20260510025526 63 141 1.0 1.0 0.00 0.00 0.00 50 1012.9
20260510025027 64 174 1.0 2.0 0.00 0.00 0.00 50 1012.9
20260510024539 64 124 0.0 1.0 0.00 0.00 0.00 50 1013.2
20260510024041 64 123 1.0 1.0 0.00 0.00 0.00 49 1012.9
20260510023535 64 197 0.0 1.0 0.00 0.00 0.00 49 1012.9
20260510023040 65 167 1.0 1.0 0.00 0.00 0.00 49 1013.2
20260510022539 65 194 0.0 0.0 0.00 0.00 0.00 48 1012.9
20260510022037 65 117 0.0 1.0 0.00 0.00 0.00 48 1013.2
20260510021538 65 162 1.0 2.0 0.00 0.00 0.00 48 1012.9
20260510021037 66 105 2.0 2.0 0.00 0.00 0.00 47 1013.2
20260510020539 66 221 0.0 1.0 0.00 0.00 0.00 47 1012.9
20260510020037 66 108 4.0 6.0 0.00 0.00 0.00 47 1012.9
20260510015539 66 95 2.0 2.0 0.00 0.00 0.00 47 1012.9
20260510015024 66 150 0.0 0.0 0.00 0.00 0.00 46 1012.9
20260510014524 66 192 0.0 1.0 0.00 0.00 0.00 47 1012.9
20260510014026 66 98 2.0 2.0 0.00 0.00 0.00 46 1012.9
20260510013522 66 107 0.0 0.0 0.00 0.00 0.00 46 1012.9
20260510013025 66 113 0.0 1.0 0.00 0.00 0.00 47 1012.9
20260510012522 67 114 1.0 1.0 0.00 0.00 0.00 46 1012.9
20260510012024 67 66 1.0 2.0 0.00 0.00 0.00 46 1013.2
20260510011524 67 197 0.0 1.0 0.00 0.00 0.00 46 1012.9
20260510011023 67 136 1.0 2.0 0.00 0.00 0.00 46 1013.2
20260510010524 68 103 0.0 1.0 0.00 0.00 0.00 46 1013.2
20260510010022 68 132 0.0 1.0 0.00 0.00 0.00 45 1012.9
20260510005522 68 166 1.0 1.0 0.00 0.00 0.00 46 1013.2
20260510005022 68 138 0.0 1.0 0.00 0.00 0.00 44 1013.2
20260510004522 68 217 0.0 1.0 0.00 0.00 0.00 43 1012.9
20260510004021 68 156 0.0 1.0 0.00 0.00 0.00 44 1013.2
20260510003522 68 272 1.0 2.0 0.00 0.00 0.00 43 1013.2
20260510003022 68 117 1.0 2.0 0.00 0.00 0.00 45 1013.2
20260510002524 68 156 1.0 1.0 0.00 0.00 0.00 46 1013.2
20260510002021 69 123 1.0 2.0 0.00 0.00 0.00 44 1013.2
20260510001521 68 214 0.0 1.0 0.00 0.00 0.00 42 1013.2
20260510001020 68 196 0.0 1.0 0.00 0.00 0.00 43 1013.2
20260510000519 68 168 0.0 1.0 0.00 0.00 0.00 43 1013.2
20260510000023 68 289 1.0 2.0 0.00 0.00 0.00 44 1013.2
20260509235519 67 219 0.0 1.0 0.00 0.00 0.00 43 1012.9
20260509235020 67 128 0.0 0.0 0.00 0.00 0.00 43 1012.9
20260509234520 67 95 1.0 2.0 0.00 0.00 0.00 45 1013.2
20260509234021 67 117 1.0 1.0 0.00 0.00 0.00 44 1012.9
20260509233520 67 178 0.0 0.0 0.00 0.00 0.00 44 1013.2
20260509233019 67 185 0.0 1.0 0.00 0.00 0.00 45 1013.2
20260509232522 67 103 1.0 1.0 0.00 0.00 0.00 45 1012.9
20260509232019 67 90 1.0 2.0 0.00 0.00 0.00 46 1013.2
20260509231442 67 221 0.0 0.0 0.00 0.00 0.00 45 1013.2
20260509230940 67 143 0.0 0.0 0.00 0.00 0.00 45 1013.2
20260509230438 67 243 0.0 1.0 0.00 0.00 0.00 44 1013.2
20260509225917 67 253 0.0 1.0 0.00 0.00 0.00 44 1013.2
20260509225418 66 169 0.0 0.0 0.00 0.00 0.00 45 1013.5
20260509224916 66 147 0.0 1.0 0.00 0.00 0.00 46 1013.2
20260509224417 65 115 2.0 3.0 0.00 0.00 0.00 46 1013.5
20260509223919 65 299 0.0 1.0 0.00 0.00 0.00 46 1013.5
20260509223417 64 310 0.0 1.0 0.00 0.00 0.00 46 1013.5
20260509222917 63 297 1.0 2.0 0.00 0.00 0.00 46 1013.5
20260509222426 63 347 2.0 3.0 0.00 0.00 0.00 47 1013.5
20260509221916 63 3 1.0 2.0 0.00 0.00 0.00 49 1013.5
20260509221415 63 263 1.0 1.0 0.00 0.00 0.00 50 1013.9
20260509220915 63 145 0.0 0.0 0.00 0.00 0.00 50 1013.9
20260509220415 63 148 1.0 2.0 0.00 0.00 0.00 50 1013.5
20260509215915 63 124 2.0 3.0 0.00 0.00 0.00 49 1013.5
20260509215417 63 246 0.0 0.0 0.00 0.00 0.00 49 1013.5
20260509214914 62 175 0.0 1.0 0.00 0.00 0.00 49 1013.5
20260509214414 62 103 0.0 1.0 0.00 0.00 0.00 49 1013.9
20260509213916 63 113 0.0 1.0 0.00 0.00 0.00 50 1013.9
20260509213343 63 106 3.0 3.0 0.00 0.00 0.00 50 1013.5
20260509212840 63 58 2.0 2.0 0.00 0.00 0.00 49 1013.5
20260509212321 64 271 3.0 3.0 0.00 0.00 0.00 49 1013.9
20260509211815 64 224 2.0 2.0 0.00 0.00 0.00 49 1013.9
20260509211240 64 320 3.0 3.0 0.00 0.00 0.00 48 1013.9
20260509210741 65 289 3.0 5.0 0.00 0.00 0.00 48 1013.9
20260509210240 65 222 0.0 1.0 0.00 0.00 0.00 47 1013.9
20260509205746 65 154 0.0 1.0 0.00 0.00 0.00 47 1013.9
20260509205237 65 211 0.0 0.0 0.00 0.00 0.00 46 1013.9
20260509204741 65 162 0.0 1.0 0.00 0.00 0.00 47 1013.9
20260509204214 64 89 1.0 2.0 0.00 0.00 0.00 46 1013.9
20260509203715 64 292 2.0 2.0 0.00 0.00 0.00 46 1013.9
20260509203211 63 252 0.0 1.0 0.00 0.00 0.00 44 1013.9
20260509202713 63 209 0.0 1.0 0.00 0.00 0.00 48 1013.9
20260509202211 63 111 2.0 3.0 0.00 0.00 0.00 49 1013.9
20260509201715 63 89 1.0 2.0 0.00 0.00 0.00 49 1013.5
20260509201213 64 89 1.0 2.0 0.00 0.00 0.00 49 1013.9
20260509200713 64 125 0.0 1.0 0.00 0.00 0.00 50 1013.5
20260509200216 64 219 1.0 1.0 0.00 0.00 0.00 48 1013.9
20260509195711 64 130 2.0 2.0 0.00 0.00 0.00 49 1013.9
20260509195214 64 171 1.0 1.0 0.00 0.00 0.00 49 1013.9
20260509194710 63 229 0.0 1.0 0.00 0.00 0.00 48 1013.9
20260509194212 63 150 0.0 0.0 0.00 0.00 0.00 49 1013.9
20260509193710 63 41 3.0 3.0 0.00 0.00 0.00 50 1014.2
20260509193214 62 120 1.0 1.0 0.00 0.00 0.00 49 1013.9
20260509192712 62 59 2.0 3.0 0.00 0.00 0.00 48 1013.9
20260509192213 62 167 0.0 2.0 0.00 0.00 0.00 51 1014.2
20260509191713 62 286 1.0 1.0 0.00 0.00 0.00 49 1014.2
20260509191215 61 103 1.0 2.0 0.00 0.00 0.00 51 1014.2
20260509190710 62 108 3.0 3.0 0.00 0.00 0.00 51 1013.9
20260509190143 62 169 0.0 1.0 0.00 0.00 0.00 50 1013.9
20260509185637 62 227 0.0 0.0 0.00 0.00 0.00 50 1014.2
20260509185112 62 234 0.0 1.0 0.00 0.00 0.00 51 1013.9
20260509184610 62 280 3.0 3.0 0.00 0.00 0.00 52 1013.9
20260509184112 63 259 1.0 2.0 0.00 0.00 0.00 51 1013.9
20260509183611 63 303 1.0 1.0 0.00 0.00 0.00 49 1013.9
20260509183113 63 228 0.0 0.0 0.00 0.00 0.00 48 1013.9
20260509182612 62 236 0.0 0.0 0.00 0.00 0.00 48 1013.9
20260509182113 62 205 0.0 0.0 0.00 0.00 0.00 49 1013.9
20260509181612 62 222 1.0 1.0 0.00 0.00 0.00 50 1013.9
20260509181112 63 301 3.0 3.0 0.00 0.00 0.00 49 1013.9
20260509180612 62 310 0.0 1.0 0.00 0.00 0.00 46 1013.9
20260509180109 62 209 0.0 0.0 0.00 0.00 0.00 50 1013.9
20260509175613 62 287 1.0 2.0 0.00 0.00 0.00 51 1013.9
20260509175111 62 246 2.0 3.0 0.00 0.00 0.00 50 1013.9
20260509174609 62 139 2.0 3.0 0.00 0.00 0.00 50 1013.9
20260509174115 61 214 1.0 1.0 0.00 0.00 0.00 50 1013.9
20260509173614 61 164 0.0 1.0 0.00 0.00 0.00 54 1013.9
20260509173115 61 146 3.0 3.0 0.00 0.00 0.00 53 1013.9
20260509172610 60 99 0.0 1.0 0.00 0.00 0.00 54 1013.9
20260509172112 60 166 1.0 2.0 0.00 0.00 0.00 54 1013.5
20260509171613 59 358 3.0 5.0 0.00 0.00 0.00 55 1013.9
20260509171112 59 242 3.0 3.0 0.00 0.00 0.00 55 1013.9
20260509170610 58 207 0.0 0.0 0.00 0.00 0.00 55 1013.9
20260509170110 58 246 2.0 2.0 0.00 0.00 0.00 58 1014.2
20260509165614 57 235 0.0 1.0 0.00 0.00 0.00 59 1013.9
20260509165111 57 73 0.0 1.0 0.00 0.00 0.00 61 1013.9
20260509164610 57 162 0.0 0.0 0.00 0.00 0.00 62 1013.9
20260509164112 56 241 0.0 1.0 0.00 0.00 0.00 65 1013.9
20260509163611 56 234 0.0 0.0 0.00 0.00 0.00 64 1013.9
20260509163109 56 166 0.0 0.0 0.00 0.00 0.00 65 1013.9
20260509162611 56 291 1.0 1.0 0.00 0.00 0.00 65 1013.9
20260509162042 56 234 0.0 0.0 0.00 0.00 0.00 65 1014.2
20260509161539 56 328 2.0 3.0 0.00 0.00 0.00 65 1013.9
20260509161037 56 231 0.0 0.0 0.00 0.00 0.00 66 1013.9
20260509160535 56 337 0.0 1.0 0.00 0.00 0.00 65 1013.9
20260509160037 55 214 0.0 0.0 0.00 0.00 0.00 67 1013.5
20260509155542 55 284 2.0 2.0 0.00 0.00 0.00 68 1013.5
20260509155038 55 345 0.0 1.0 0.00 0.00 0.00 67 1013.5
20260509154541 55 231 0.0 1.0 0.00 0.00 0.00 68 1013.5
20260509154022 55 256 0.0 1.0 0.00 0.00 0.00 67 1013.5
20260509153520 54 168 0.0 0.0 0.00 0.00 0.00 67 1013.5
20260509153021 54 213 0.0 0.0 0.00 0.00 0.00 69 1013.5
20260509152519 54 221 0.0 0.0 0.00 0.00 0.00 69 1013.5
20260509152019 53 245 0.0 0.0 0.00 0.00 0.00 69 1013.5
20260509151519 53 254 0.0 0.0 0.00 0.00 0.00 70 1013.5
20260509151021 53 262 1.0 1.0 0.00 0.00 0.00 71 1013.5
20260509150520 53 293 3.0 3.0 0.00 0.00 0.00 72 1013.5
20260509150020 53 275 0.0 0.0 0.00 0.00 0.00 71 1013.5
20260509145519 53 267 0.0 1.0 0.00 0.00 0.00 72 1013.2
20260509145020 53 253 1.0 2.0 0.00 0.00 0.00 73 1013.5
20260509144520 53 331 0.0 1.0 0.00 0.00 0.00 74 1013.2
20260509144029 53 297 2.0 2.0 0.00 0.00 0.00 73 1013.2
20260509143518 52 245 2.0 3.0 0.00 0.00 0.00 73 1013.5
20260509143018 52 244 0.0 1.0 0.00 0.00 0.00 72 1012.9
20260509142518 52 202 0.0 0.0 0.00 0.00 0.00 71 1013.2
20260509142018 52 228 0.0 0.0 0.00 0.00 0.00 70 1013.2
20260509141517 52 228 0.0 0.0 0.00 0.00 0.00 71 1013.2
20260509141017 52 174 0.0 0.0 0.00 0.00 0.00 71 1012.9
20260509140517 51 252 0.0 1.0 0.00 0.00 0.00 73 1013.2
20260509140018 51 198 0.0 0.0 0.00 0.00 0.00 74 1012.9
20260509135517 51 204 0.0 0.0 0.00 0.00 0.00 74 1012.9
20260509135016 51 103 0.0 0.0 0.00 0.00 0.00 74 1012.9
20260509134516 51 220 0.0 1.0 0.00 0.00 0.00 73 1012.9
20260509134017 51 187 0.0 0.0 0.00 0.00 0.00 70 1012.5
20260509133516 51 111 0.0 1.0 0.00 0.00 0.00 66 1012.5
20260509133017 51 311 0.0 0.0 0.00 0.00 0.00 62 1012.9
20260509132516 50 239 0.0 0.0 0.00 0.00 0.00 58 1012.5
20260509132016 50 239 0.0 0.0 0.00 0.00 0.00 57 1012.5
20260509131515 50 239 0.0 0.0 0.00 0.00 0.00 56 1012.5
20260509131015 50 239 0.0 0.0 0.00 0.00 0.00 56 1012.5
20260509130514 50 239 0.0 0.0 0.00 0.00 0.00 56 1012.5
20260509130015 49 239 0.0 0.0 0.00 0.00 0.00 56 1012.2
20260509125515 49 239 0.0 0.0 0.00 0.00 0.00 57 1012.2
20260509125016 49 239 0.0 0.0 0.00 0.00 0.00 57 1012.5
20260509124513 49 247 0.0 0.0 0.00 0.00 0.00 57 1012.2
20260509124016 49 237 0.0 0.0 0.00 0.00 0.00 57 1012.2
20260509123515 49 238 0.0 0.0 0.00 0.00 0.00 58 1011.9
20260509123015 49 236 0.0 0.0 0.00 0.00 0.00 58 1011.9
20260509122440 49 236 0.0 0.0 0.00 0.00 0.00 58 1012.2
20260509121937 49 231 0.0 1.0 0.00 0.00 0.00 57 1011.9
20260509121438 49 234 0.0 0.0 0.00 0.00 0.00 57 1012.2
20260509120939 50 222 0.0 0.0 0.00 0.00 0.00 57 1011.9
20260509120441 50 218 0.0 0.0 0.00 0.00 0.00 57 1011.9
20260509115938 50 216 0.0 0.0 0.00 0.00 0.00 57 1011.9
20260509115437 50 207 0.0 0.0 0.00 0.00 0.00 56 1011.9
20260509114937 50 156 0.0 0.0 0.00 0.00 0.00 56 1011.9
20260509114441 50 155 0.0 0.0 0.00 0.00 0.00 56 1011.9
20260509113939 50 155 0.0 0.0 0.00 0.00 0.00 56 1011.9
20260509113437 51 155 0.0 0.0 0.00 0.00 0.00 55 1011.5
20260509112936 51 154 0.0 0.0 0.00 0.00 0.00 54 1011.9
20260509112514 51 156 0.0 0.0 0.00 0.00 0.00 53 1011.5
20260509112011 51 157 0.0 0.0 0.00 0.00 0.00 54 1011.5
20260509111540 51 157 0.0 0.0 0.00 0.00 0.00 53 1011.5
20260509111112 51 164 0.0 0.0 0.00 0.00 0.00 54 1011.5
20260509110611 51 154 0.0 0.0 0.00 0.00 0.00 54 1011.5
20260509110137 51 166 0.0 0.0 0.00 0.00 0.00 54 1011.5
20260509105636 51 167 0.0 0.0 0.00 0.00 0.00 54 1011.9
20260509105142 51 166 0.0 0.0 0.00 0.00 0.00 54 1011.5
20260509104641 51 157 0.0 0.0 0.00 0.00 0.00 53 1011.5
20260509104141 51 166 0.0 0.0 0.00 0.00 0.00 53 1011.5
20260509103710 51 147 0.0 0.0 0.00 0.00 0.00 53 1011.5
20260509103213 51 145 0.0 0.0 0.00 0.00 0.00 53 1011.2
20260509102713 52 181 0.0 0.0 0.00 0.00 0.00 53 1011.5
20260509102214 52 140 0.0 0.0 0.00 0.00 0.00 52 1011.5
20260509101712 52 234 0.0 0.0 0.00 0.00 0.00 52 1011.5
20260509101240 52 234 0.0 0.0 0.00 0.00 0.00 52 1011.9
20260509100739 52 234 1.0 1.0 0.00 0.00 0.00 52 1011.5
20260509100237 52 152 0.0 0.0 0.00 0.00 0.00 52 1011.2
20260509095742 52 152 0.0 0.0 0.00 0.00 0.00 52 1011.2
20260509095312 52 152 0.0 0.0 0.00 0.00 0.00 51 1011.2
20260509094810 52 152 0.0 0.0 0.00 0.00 0.00 51 1011.2
20260509094313 52 152 0.0 0.0 0.00 0.00 0.00 50 1011.2
20260509093839 52 152 0.0 0.0 0.00 0.00 0.00 50 1011.2
20260509093409 53 152 0.0 0.0 0.00 0.00 0.00 50 1011.2
20260509092910 53 158 0.0 0.0 0.00 0.00 0.00 50 1010.8
20260509092414 53 159 0.0 0.0 0.00 0.00 0.00 50 1010.8
20260509091912 53 156 0.0 0.0 0.00 0.00 0.00 50 1010.8
20260509091412 53 157 0.0 0.0 0.00 0.00 0.00 50 1010.8
20260509090917 53 119 2.0 2.0 0.00 0.00 0.00 49 1011.2
20260509090414 53 154 1.0 1.0 0.00 0.00 0.00 49 1011.2
20260509085915 53 75 2.0 2.0 0.00 0.00 0.00 49 1010.8
20260509085414 53 101 1.0 2.0 0.00 0.00 0.00 48 1011.2
20260509084917 53 106 3.0 3.0 0.00 0.00 0.00 48 1010.8
20260509084418 53 131 1.0 2.0 0.00 0.00 0.00 48 1011.2
20260509083915 53 128 1.0 2.0 0.00 0.00 0.00 48 1011.2
20260509083416 53 132 2.0 3.0 0.00 0.00 0.00 48 1011.2
20260509082915 53 134 0.0 1.0 0.00 0.00 0.00 49 1011.2
20260509082414 54 162 0.0 0.0 0.00 0.00 0.00 50 1010.8
20260509081916 54 119 0.0 1.0 0.00 0.00 0.00 49 1010.8